[[{"header":{"parameterUnit":"m.s-1","parameterCategory":1,"la1":30.2991,"la2":30.254,"lo1":-89.0895,"lo2":-89.0444,"dy":0.0017,"dx":0.0017,"nx":28,"ny":28,"refTime":"2023-09-25T09:00:00:Z","depth":0,"parameterNumber":2,"parameterNumberName":"U-component_of_WINDS"},"data":[0,0,0,0,0,0,0,0,0,0,0,0,0,0,0,0,0,0,0,0,0,0,0,0,0,0,0,0,0,0,0,0,0,0,0,0,0,0,0,0,0,0,0,0,0,0,0,0,0,0,0,0,0,0,0,0,0,0,-2.7037,-2.7037,0,-2.7064,-2.7064,-2.7064,-2.6961,-2.6958,-2.6955,-2.6952,-2.6981,-2.6984,-2.6988,0,0,0,0,0,0,0,0,0,0,0,0,0,-2.6897,-2.69,-2.7037,-2.7037,-2.7038,-2.7064,-2.7064,-2.7065,-2.6962,-2.6958,-2.6954,-2.6951,-2.698,-2.6984,-2.6988,0,0,0,0,0,0,0,0,0,0,0,0,0,-2.6944,-2.6901,-2.7037,-2.699,-2.6986,-2.7064,-2.7064,-2.7065,-2.6962,-2.6958,-2.6953,-2.6949,-2.6978,-2.6983,-2.6989,-2.7114,0,0,-2.7005,-2.7008,0,0,0,0,0,0,0,0,-2.6942,-2.6949,-2.6996,-2.6993,-2.6989,-2.7004,-2.7025,-2.7081,-2.6964,-2.6971,-2.6952,-2.6947,-2.6992,-2.6996,-2.7012,-2.7116,-2.7117,-2.7006,-2.7009,-2.7011,-2.7013,0,0,0,0,0,0,0,-2.6939,-2.6948,-2.7048,-2.6997,-2.6992,-2.6967,-2.6968,-2.7035,-2.7007,-2.697,-2.6963,-2.6967,-2.6989,-2.7007,-2.7011,-2.7117,-2.7006,-2.7011,-2.7014,-2.7016,-2.7325,-2.7329,0,0,0,0,0,0,-2.6941,-2.6946,-2.7047,-2.7048,-2.6953,-2.6973,-2.6975,-2.7004,-2.7006,-2.7002,-2.6971,-2.6962,-2.7,-2.7005,-2.7012,-2.7159,-2.7011,-2.7017,-2.702,-2.732,-2.7326,-2.7331,0,0,0,0,0,0,-2.6939,-2.6951,-2.7046,-2.6995,-2.7005,-2.698,-2.7014,-2.7007,-2.7024,-2.7007,-2.7002,-2.6994,-2.6996,-2.7004,-2.7089,-2.7159,-2.7019,-2.7024,-2.7314,-2.7322,-2.7329,-2.7455,0,0,0,0,0,0,-2.6935,-2.6951,-2.6999,-2.6997,-2.7008,-2.7123,-2.7018,-2.7011,-2.7033,-2.7022,-2.7027,-2.7023,-2.6993,-2.7082,-2.7095,-2.7164,-2.7028,-2.7308,-2.7317,-2.7326,-2.7444,-2.7465,-2.7483,0,0,0,0,0,-2.6931,-2.7034,-2.7002,-2.7015,-2.7067,-2.7127,-2.7134,-2.7097,-2.7039,-2.7087,-2.7076,-2.7023,-2.7149,-2.7091,-2.7105,-2.7177,-2.7303,-2.7315,-2.7326,-2.7435,-2.7461,-2.7483,0,0,0,0,0,0,-2.7045,-2.7033,-2.6997,-2.7103,-2.7117,-2.711,-2.7169,-2.7126,-2.7157,-2.7145,-2.7098,-2.71,-2.7193,-2.7193,-2.7129,-2.7298,-2.7216,-2.723,-2.7295,-2.7319,-2.7339,-2.7337,-2.7033,0,0,0,0,0,-2.7083,-2.7132,-2.7119,-2.7213,-2.7222,-2.7195,-2.7219,-2.7189,-2.7202,-2.7208,-2.7203,-2.7218,-2.726,-2.7289,-2.7328,-2.7443,-2.7442,-2.7499,-2.7518,-2.7534,-2.7548,-2.7608,-2.7633,-2.7368,-2.7368,-2.7367,0,0,-2.7161,-2.716,-2.7195,-2.7236,-2.7243,-2.7296,-2.72,-2.726,-2.7299,-2.7217,-2.7297,-2.7294,-2.7307,-2.7408,-2.7452,-2.741,-2.7621,-2.7549,-2.7562,-2.7566,-2.7623,-2.7648,-2.767,-2.7375,-2.7374,-2.7373,0,0,-2.733,-2.7335,-2.7414,-2.7423,-2.7435,-2.7415,-2.7434,-2.7434,-2.7428,-2.7508,-2.7447,-2.7492,-2.7566,-2.7578,-2.7594,-2.7766,-2.7719,-2.778,-2.7883,-2.7943,-2.7964,-2.7982,-2.8044,-2.8067,-2.7793,-2.7793,-2.7793,0,-2.7426,-2.7503,-2.746,-2.7524,-2.7544,-2.7471,-2.755,-2.7561,-2.7586,-2.7601,-2.7554,-2.7645,-2.7649,-2.7751,-2.7793,-2.7808,-2.7828,-2.778,-2.7964,-2.7982,-2.7999,-2.8057,-2.808,-2.7801,-2.78,-2.7799,-2.7798,0,-2.762,-2.7674,-2.7737,-2.7761,-2.7788,-2.7859,-2.7827,-2.7859,-2.7826,-2.7812,-2.7893,-2.7895,-2.7932,-2.7953,-2.7922,-2.8051,-2.8025,-2.7972,-2.7889,-2.8032,-2.8086,-2.8108,-2.7811,-2.7809,-2.7806,-2.7804,0,0,-2.7865,-2.7863,-2.7887,-2.7897,-2.7904,-2.7945,-2.8013,-2.8048,-2.8077,-2.8095,-2.8151,-2.8215,-2.8165,-2.8183,-2.8152,-2.8205,-2.8341,-2.8145,-2.8144,-2.8182,-2.8483,-2.8524,-2.8551,-2.8309,-2.8313,-2.8316,-2.8482,0,-2.8032,-2.8147,-2.811,-2.8227,-2.8276,-2.8207,-2.8265,-2.8276,-2.8264,-2.8304,-2.829,-2.8336,-2.8267,-2.8278,-2.8326,-2.8314,-2.8401,-2.8301,-2.8361,-2.8363,-2.8361,-2.8579,-2.8622,-2.8779,-2.8503,-2.8506,-2.8509,0,-2.8243,-2.8269,-2.8391,-2.8389,-2.8408,-2.8462,-2.849,-2.8529,-2.8539,-2.8527,-2.8546,-2.8504,-2.857,-2.8486,-2.8576,-2.8509,-2.8531,-2.8528,-2.8533,-2.8539,-2.8446,-2.8591,-2.8828,-2.8852,-2.8542,-2.8539,-2.8537,0,-2.841,-2.8475,-2.8557,-2.8567,-2.8566,-2.8606,-2.8607,-2.8613,-2.8636,-2.8661,-2.8676,-2.8709,-2.8727,-2.8753,-2.8721,-2.8663,-2.8816,-2.8729,-2.8808,-2.8809,-2.8845,-2.8843,-2.909,-2.8857,-2.8857,-2.8856,-2.8856,0,-2.8601,-2.8678,-2.8631,-2.8682,-2.8766,-2.8722,-2.8806,-2.88,-2.8805,-2.8853,-2.8794,-2.884,-2.8794,-2.8836,-2.8811,-2.8889,-2.8898,-2.889,-2.8882,-2.8896,-2.8897,-2.891,-2.8899,-2.8862,-2.8861,-2.886,-2.8859,0,-2.8803,-2.8774,-2.8858,-2.885,-2.885,-2.8912,-2.8905,-2.8951,-2.8934,-2.8995,-2.9007,-2.898,-2.9026,-2.8996,-2.9042,-2.9025,-2.9128,-2.9105,-2.9125,-2.9119,-2.92,-2.9193,-2.9465,-2.9498,-2.9243,-2.9245,-2.9247,0,-2.8927,-2.8985,-2.8982,-2.901,-2.9015,-2.906,-2.9083,-2.9041,-2.9067,-2.9082,-2.9127,-2.9167,-2.9198,-2.9274,-2.9259,-2.9294,-2.9272,-2.9364,-2.9277,-2.9288,-2.9274,-2.9271,-2.9277,-2.9383,-2.9386,-2.9388,-2.939,0,-2.9151,-2.9134,-2.9169,-2.92,-2.9229,-2.9252,-2.9269,-2.9295,-2.9252,-2.9285,-2.933,-2.9354,-2.94,-2.9441,-2.947,-2.9471,-2.9425,-2.9418,-2.9438,-2.9453,-2.9462,-2.9459,-2.9174,-2.9412,-2.941,-2.9408,-2.9407,-2.9406,-2.9319,-2.9366,-2.9372,-2.9413,-2.9421,-2.9439,-2.9481,-2.9469,-2.9506,-2.9541,-2.9513,-2.9568,-2.9575,-2.9608,-2.9615,-2.9657,-2.962,-2.9649,-2.9656,-2.9665,-2.9676,-2.9454,-2.9662,-2.9662,-2.9661,-2.966,-2.966,0,-2.954,-2.954,-2.9578,-2.9604,-2.9636,-2.9587,-2.9604,-2.9634,-2.9683,-2.9694,-2.9724,-2.9776,-2.9815,-2.9803,-2.9838,-2.9874,-2.9853,-2.9884,-2.9882,-2.9883,-2.9708,-2.9687,-2.9901,-2.9901,-2.99,-2.99,-2.99,-2.99,-2.9659,-2.9738,-2.9721,-2.9803,-2.9801,-2.9854,-2.9868,-2.9883,-2.9891,-2.9952,-2.9984,-2.9975,-2.9976,-3.001,-3.0044,-3.0039,-3.0055,-3.0095,-3.0082,-2.9919,-2.9895,-2.9873,-2.9853,-3.0098,-3.0098,-3.0254,-3.0255,-3.0257]},{"header":{"parameterUnit":"m.s-1","parameterCategory":1,"la1":30.2991,"la2":30.254,"lo1":-89.0895,"lo2":-89.0444,"dy":0.0017,"dx":0.0017,"nx":28,"ny":28,"refTime":"2023-09-25T09:00:00:Z","depth":0,"parameterNumber":3,"parameterNumberName":"V-component_of_WINDS"},"data":[0,0,0,0,0,0,0,0,0,0,0,0,0,0,0,0,0,0,0,0,0,0,0,0,0,0,0,0,0,0,0,0,0,0,0,0,0,0,0,0,0,0,0,0,0,0,0,0,0,0,0,0,0,0,0,0,0,0,-2.3119,-2.312,0,-2.3182,-2.3183,-2.3184,-2.317,-2.3169,-2.3168,-2.3166,-2.3229,-2.3232,-2.3235,0,0,0,0,0,0,0,0,0,0,0,0,0,-2.2984,-2.2987,-2.3119,-2.312,-2.3121,-2.3182,-2.3183,-2.3184,-2.317,-2.3169,-2.3167,-2.3166,-2.3228,-2.3232,-2.3235,0,0,0,0,0,0,0,0,0,0,0,0,0,-2.3045,-2.2988,-2.3119,-2.3121,-2.3122,-2.3182,-2.3183,-2.3184,-2.317,-2.3169,-2.3167,-2.3165,-2.3227,-2.3231,-2.3235,-2.3296,0,0,-2.3248,-2.325,0,0,0,0,0,0,0,0,-2.3041,-2.305,-2.312,-2.3121,-2.3122,-2.3166,-2.3158,-2.3222,-2.3171,-2.3152,-2.3166,-2.3164,-2.321,-2.3215,-2.3231,-2.3299,-2.3302,-2.3248,-2.3251,-2.3253,-2.3254,0,0,0,0,0,0,0,-2.3037,-2.3047,-2.3144,-2.3121,-2.3123,-2.3118,-2.3125,-2.317,-2.319,-2.3154,-2.3153,-2.316,-2.321,-2.3227,-2.3232,-2.3303,-2.3248,-2.3252,-2.3255,-2.3256,-2.3423,-2.3425,0,0,0,0,0,0,-2.3032,-2.3044,-2.3142,-2.3146,-2.3077,-2.3122,-2.313,-2.3154,-2.3189,-2.3193,-2.3162,-2.316,-2.3221,-2.3227,-2.3234,-2.3307,-2.3253,-2.3257,-2.3259,-2.3421,-2.3423,-2.3425,0,0,0,0,0,0,-2.303,-2.3041,-2.3139,-2.3095,-2.3107,-2.3126,-2.3154,-2.3156,-2.3173,-2.3196,-2.3199,-2.3176,-2.3219,-2.3228,-2.3281,-2.3309,-2.3258,-2.3262,-2.3419,-2.3422,-2.3424,-2.3453,0,0,0,0,0,0,-2.3026,-2.304,-2.3064,-2.3095,-2.3109,-2.3186,-2.3156,-2.3159,-2.318,-2.3178,-2.321,-2.3213,-2.3219,-2.3275,-2.3285,-2.3314,-2.3266,-2.3416,-2.342,-2.3423,-2.345,-2.3457,-2.3463,0,0,0,0,0,-2.3021,-2.307,-2.3066,-2.3078,-2.314,-2.3187,-2.3195,-2.3201,-2.3183,-2.3207,-2.3221,-2.3212,-2.3304,-2.328,-2.3292,-2.3322,-2.3414,-2.3419,-2.3423,-2.3447,-2.3455,-2.3463,0,0,0,0,0,0,-2.3041,-2.3074,-2.307,-2.313,-2.3156,-2.3185,-2.3215,-2.321,-2.3242,-2.3238,-2.3244,-2.3251,-2.3304,-2.3318,-2.3291,-2.3382,-2.3357,-2.3363,-2.3371,-2.3379,-2.3385,-2.338,-2.3269,0,0,0,0,0,-2.3053,-2.309,-2.3116,-2.3167,-2.318,-2.3195,-2.3216,-2.3219,-2.3246,-2.3257,-2.3275,-2.3301,-2.3335,-2.3358,-2.3391,-2.3452,-2.3458,-2.3478,-2.3485,-2.349,-2.3496,-2.3528,-2.3537,-2.344,-2.344,-2.344,0,0,-2.3077,-2.31,-2.3122,-2.3171,-2.3192,-2.3229,-2.3205,-2.3245,-2.3272,-2.3262,-2.3313,-2.3327,-2.3356,-2.3413,-2.3438,-2.3426,-2.3524,-2.3496,-2.35,-2.3502,-2.3533,-2.3542,-2.355,-2.3443,-2.3442,-2.3442,0,0,-2.314,-2.3161,-2.3205,-2.3226,-2.3258,-2.3267,-2.3278,-2.3308,-2.3317,-2.3367,-2.336,-2.3392,-2.3453,-2.3473,-2.3492,-2.3562,-2.3554,-2.3572,-2.3606,-2.3637,-2.3644,-2.3651,-2.3675,-2.3684,-2.3578,-2.3578,-2.3578,0,-2.3166,-2.3222,-2.3229,-2.327,-2.3291,-2.3284,-2.3328,-2.3348,-2.3388,-2.3402,-2.3388,-2.3463,-2.3482,-2.3543,-2.356,-2.3575,-2.3587,-2.3568,-2.3643,-2.365,-2.3656,-2.3679,-2.3688,-2.358,-2.358,-2.3579,-2.3579,0,-2.3252,-2.3291,-2.3323,-2.3362,-2.3387,-2.3429,-2.3441,-2.3465,-2.3465,-2.3476,-2.3527,-2.355,-2.3587,-2.3602,-2.3603,-2.3663,-2.3654,-2.3641,-2.3616,-2.3667,-2.3689,-2.3698,-2.3583,-2.3582,-2.3581,-2.3581,0,0,-2.333,-2.3372,-2.3383,-2.34,-2.3434,-2.3464,-2.3505,-2.3542,-2.3562,-2.359,-2.3624,-2.3675,-2.3663,-2.3684,-2.3687,-2.3714,-2.3767,-2.3698,-2.3699,-2.3709,-2.3833,-2.3842,-2.3852,-2.3762,-2.3764,-2.3765,-2.383,0,-2.3395,-2.3469,-2.3475,-2.3541,-2.3576,-2.357,-2.3606,-2.363,-2.3641,-2.3672,-2.3684,-2.3719,-2.3702,-2.3714,-2.3741,-2.3755,-2.3792,-2.375,-2.3793,-2.3795,-2.3785,-2.3863,-2.3873,-2.3933,-2.3839,-2.384,-2.3841,0,-2.3481,-2.3512,-2.3581,-2.3609,-2.3624,-2.3656,-2.369,-2.372,-2.3747,-2.3753,-2.3776,-2.3775,-2.3816,-2.3789,-2.3846,-2.3818,-2.3836,-2.3845,-2.3847,-2.3851,-2.3821,-2.3868,-2.3952,-2.3961,-2.3855,-2.3854,-2.3853,0,-2.3529,-2.3588,-2.3637,-2.3652,-2.3686,-2.3709,-2.3724,-2.3749,-2.377,-2.3799,-2.3813,-2.3847,-2.3865,-2.389,-2.3898,-2.3878,-2.3954,-2.3928,-2.3959,-2.3959,-2.3975,-2.3974,-2.4063,-2.3988,-2.3988,-2.3988,-2.3988,0,-2.3601,-2.3644,-2.3659,-2.3689,-2.3736,-2.3742,-2.3788,-2.3802,-2.3824,-2.3856,-2.3853,-2.3882,-2.3891,-2.3922,-2.3928,-2.3973,-2.3982,-2.3987,-2.3988,-2.3987,-2.3986,-2.3998,-2.3994,-2.399,-2.399,-2.3989,-2.3989,0,-2.3663,-2.3675,-2.3728,-2.3755,-2.3763,-2.3797,-2.382,-2.3848,-2.3859,-2.3899,-2.3909,-2.3925,-2.3961,-2.3971,-2.4015,-2.4019,-2.4072,-2.4069,-2.4063,-2.4063,-2.4093,-2.409,-2.4192,-2.4205,-2.4123,-2.4124,-2.4124,0,-2.3707,-2.374,-2.3771,-2.3792,-2.3808,-2.3843,-2.3865,-2.3872,-2.3895,-2.3927,-2.3951,-2.3987,-2.4016,-2.4074,-2.4089,-2.4122,-2.412,-2.4154,-2.4125,-2.4123,-2.4119,-2.4117,-2.412,-2.4159,-2.416,-2.416,-2.4161,0,-2.3785,-2.3789,-2.3821,-2.3855,-2.3881,-2.3908,-2.3933,-2.3951,-2.3962,-2.3987,-2.4024,-2.4047,-2.4091,-2.4126,-2.416,-2.4174,-2.4169,-2.417,-2.4179,-2.4178,-2.4172,-2.4175,-2.4077,-2.4167,-2.4167,-2.4166,-2.4166,-2.4166,-2.3839,-2.3867,-2.3893,-2.3928,-2.3949,-2.3973,-2.4,-2.4014,-2.4045,-2.4082,-2.4085,-2.4125,-2.4149,-2.4194,-2.421,-2.4241,-2.4231,-2.4244,-2.4247,-2.425,-2.4252,-2.4168,-2.4247,-2.4247,-2.4247,-2.4247,-2.4246,0,-2.3915,-2.3932,-2.3964,-2.4,-2.4028,-2.4021,-2.4049,-2.4072,-2.4108,-2.4131,-2.416,-2.4202,-2.4236,-2.4254,-2.4288,-2.4309,-2.4307,-2.4317,-2.4315,-2.4319,-2.426,-2.4248,-2.4318,-2.4318,-2.4318,-2.4318,-2.4318,-2.4318,-2.3958,-2.4005,-2.4012,-2.4069,-2.4085,-2.4124,-2.4141,-2.4162,-2.4181,-2.4229,-2.4257,-2.4269,-2.429,-2.4325,-2.4355,-2.436,-2.4372,-2.4383,-2.4386,-2.433,-2.4323,-2.4316,-2.4305,-2.4386,-2.4386,-2.4442,-2.4443,-2.4443]}]]